星链-31689 (STARLINK-31689 )

导读

STARLINK-31689是美国SpaceX星链星座中的一颗卫星,于2024年4月23日发射入轨,属于星链网络扩容项目的一部分。星链系统旨在为全球提供高速低延迟互联网覆盖,该卫星延续了星链批次化部署节奏,进一步完善了低轨卫星通信网络的全球服务能力,推动星链星座组网建设进程。

Basic Information
目录编号:
59567
目录名称:
STARLINK-31689
国际标识:
2024-076D
轨道中心:
EARTH
卫星名称:
星链-31689
卫星全名:
星链-31689 (STARLINK-31689 )
卫星状态:
在轨 (已飞行783 天)
发射日期:
2024-04-23 UTC
国别 :
美国 (US)
星等 :
--
Orbit Information
数据来源 国际轨道数据 AOE轨道数据
星历时间 2026-06-15T01:45:30+0800
11小时前
查看轨道信息
2026-06-15T05:00:00+0800
8小时前
查看轨道信息
半长轴 6861.214km 6861.212km
偏心率 0.0000709 0.0001911
轨道倾角 43.002° 43.000°
近地点辐角 279.152° 228.750°
升交点赤经 177.592° 176.833°
平近点角 80.925° 155.008°
近地点 482.59km 481.763km
远地点 483.564km 484.387km
周期 94.267分钟 94.267分钟
每日圈数 15.275708 15.275715
Detailed Information
固有亮度:
5
最大亮度:
1.5
卫星平台:
Starlink v2.0 mini
覆盖范围:
全球
运营商:
太空探索技术公司
运营商所在国:
美国
制造商(研发单位):
太空探索技术公司
制造商所在国:
美国
使用方式:
暂无
Satellite Introduction
星链(Starlink)计划是由太空探索技术公司(SpaceX)提出的一个巨型低轨卫星互联网星座项目,计划在2019年至2024年间在太空搭建由约1.2万颗卫星组成的“星链”网络,其中1584颗将部署在地球上空550千米处的近地轨道,并从2020年开始工作。该卫星仍在工作。
2D Orbit Map
3D Orbit Map
Orbit Altitude Analysis Chart
Orbit Inclination Analysis Chart
Orbit Comprehensive Analysis Chart
View Comprehensive Chart